Grand Junction, CO

5:02 AM MST on November 13, 2019 (GMT -0700)
Walker

Weather History for KGJT - October, 2019

Change the Weather History Date:

Tuesday, October 22, 2019

  Actual Average Record
Temperature  
Mean Temperature 44 °F 51 °F  
Max Temperature 60 °F 64 °F 79 °F (2003)
Min Temperature 28 °F 38 °F 20 °F (1996)
Degree Days  
Heating Degree Days 21 14  
Month to date heating degree days 305 224  
Since 1 July heating degree days 338 298  
Cooling Degree Days 0 0  
Month to date cooling degree days 0 1  
Year to date cooling degree days 1287 1123  
Moisture  
Dew Point 20 °F    
Average Humidity 42    
Maximum Humidity 58    
Minimum Humidity 25    
Precipitation  
Precipitation 0.00 in 0.03 in 0.88 in (2015)
Month to date precipitation 0.02 0.78  
Year to date precipitation 7.14 7.82  
Snow  
Snow 0.00 in 0.00 in 1.20 in (1995)
Month to date snowfall 0.0 0.2  
Since 1 July snowfall 0.0 0.2  
Since 1 September snowfall 0.0 0.2  
Snow Depth 0.00 in    
Sea Level Pressure  
Sea Level Pressure 30.25 in    
Wind  
Wind Speed 7 mph (ESE)    
Max Wind Speed 14 mph    
Max Gust Speed 18 mph    
Visibility 10 miles    
Events      
T = Trace of Precipitation, MM = Missing Value Source: NWS Daily Summary

Daily Weather History Graph

Daily Weather History Graph

Search for Another Location

Airport or City:

Astronomy

Oct. 22, 2019 Rise Set
Actual Time 7:30 AM MDT 6:25 PM MDT
Civil Twilight 7:03 AM MDT 6:52 PM MDT
Nautical Twilight 6:32 AM MDT 7:24 PM MDT
Astronomical Twilight 6:01 AM MDT 7:55 PM MDT
Moon 12:47 AM MDT (10/22) 3:34 PM MDT (10/22)
Length of Visible Light 11h 49m
Length of Day
10h 55m
Last Quarter, 36% of the Moon is Illuminated
Oct 22
Last Quarter
Oct 27
New
Nov 4
First Quarter
Nov 12
Full
Nov 19
Last Quarter

Hourly Weather History & Observations

Time (MDT) Temp. Windchill Dew Point Humidity Pressure Visibility Wind Dir Wind Speed Gust Speed Precip Events Conditions
12:53 AM 33.1 °F 30.0 °F 15.1 °F 48% 30.28 in 10.0 mi ESE 3.5 mph - N/A   Clear
1:53 AM 32.0 °F 27.5 °F 16.0 °F 52% 30.30 in 10.0 mi East 4.6 mph - N/A   Clear
2:53 AM 30.9 °F 27.5 °F 16.0 °F 54% 30.31 in 10.0 mi East 3.5 mph - N/A   Clear
3:53 AM 28.0 °F 22.8 °F 12.9 °F 53% 30.31 in 10.0 mi ESE 4.6 mph - N/A   Clear
4:53 AM 30.0 °F 25.2 °F 16.0 °F 56% 30.32 in 10.0 mi ESE 4.6 mph - N/A   Clear
5:53 AM 30.0 °F 23.2 °F 17.1 °F 59% 30.32 in 10.0 mi East 6.9 mph - N/A   Clear
6:53 AM 30.9 °F 21.7 °F 18.0 °F 59% 30.36 in 10.0 mi ESE 11.5 mph - N/A   Clear
7:53 AM 30.9 °F 21.7 °F 18.0 °F 59% 30.37 in 10.0 mi East 11.5 mph - N/A   Clear
8:53 AM 39.0 °F 32.3 °F 19.0 °F 45% 30.38 in 10.0 mi SE 10.4 mph - N/A   Clear
9:53 AM 44.1 °F 38.1 °F 19.9 °F 38% 30.38 in 10.0 mi ESE 11.5 mph - N/A   Scattered Clouds
10:53 AM 48.0 °F - 19.0 °F 32% 30.35 in 10.0 mi SE 9.2 mph - N/A   Clear
11:53 AM 52.0 °F - 19.9 °F 28% 30.32 in 10.0 mi ESE 9.2 mph - N/A   Clear
12:53 PM 55.0 °F - 21.9 °F 28% 30.27 in 10.0 mi SSE 3.5 mph - N/A   Overcast
1:53 PM 57.0 °F - 23.0 °F 27% 30.22 in 10.0 mi NNW 6.9 mph - N/A   Clear
2:53 PM 57.9 °F - 24.1 °F 27% 30.18 in 10.0 mi WSW 6.9 mph - N/A   Scattered Clouds
3:53 PM 57.9 °F - 24.1 °F 27% 30.19 in 10.0 mi NW 6.9 mph - N/A   Clear
4:53 PM 59.0 °F - 24.1 °F 26% 30.17 in 10.0 mi NW 8.1 mph - N/A   Clear
5:53 PM 57.0 °F - 25.0 °F 29% 30.16 in 10.0 mi NW 6.9 mph - N/A   Clear
6:53 PM 51.1 °F - 21.9 °F 32% 30.16 in 10.0 mi South 3.5 mph - N/A   Clear
7:53 PM 46.9 °F - 21.0 °F 36% 30.16 in 10.0 mi SE 6.9 mph - N/A   Scattered Clouds
8:53 PM 46.9 °F - 21.9 °F 37% 30.15 in 10.0 mi ENE 6.9 mph - N/A   Mostly Cloudy
9:53 PM 44.1 °F 41.5 °F 21.0 °F 40% 30.12 in 10.0 mi East 4.6 mph - N/A   Clear
10:53 PM 44.1 °F 41.5 °F 21.9 °F 42% 30.11 in 10.0 mi East 4.6 mph - N/A   Clear
11:53 PM 43.0 °F 39.5 °F 21.9 °F 43% 30.09 in 10.0 mi East 5.8 mph - N/A   Clear